DAH320 DAAG-DAAG

Flight info

Callsign DAH320
Flight time 0h 23m
Altitude 21000
Route ZEM DCT SARAN DCT CELBA DCT MAR
Aircraft A320/M-SDE3FGHIRWY/LB1

Departure

Time 2026-05-07 01:32
Airport Houari Boumediene Airport (DAAG)

Arrival

Time 2026-05-07 01:55
Airport Houari Boumediene Airport (DAAG)
Time Latitude Longitude Altitude Speed Heading
2026-05-07 01:14 36.69607 3.21479 70 ft 0 kts 205°
2026-05-07 01:29 36.69603 3.21477 97 ft 4 kts 205°
2026-05-07 01:29 36.69557 3.21450 69 ft 1 kts 201°
2026-05-07 01:29 36.69545 3.21447 64 ft 3 kts 188°
2026-05-07 01:29 36.69504 3.21455 64 ft 9 kts 155°
2026-05-07 01:30 36.69421 3.21474 70 ft 16 kts 188°
2026-05-07 01:30 36.69328 3.21365 67 ft 22 kts 233°
2026-05-07 01:30 36.69237 3.21220 63 ft 19 kts 232°
2026-05-07 01:30 36.69152 3.21081 69 ft 22 kts 233°
2026-05-07 01:31 36.69117 3.20966 70 ft 7 kts 265°
2026-05-07 01:31 36.69114 3.20924 76 ft 0 kts 271°
2026-05-07 01:31 36.69115 3.20835 76 ft 38 kts 271°
2026-05-07 01:31 36.69130 3.20091 75 ft 129 kts 271°
2026-05-07 01:32 36.69160 3.18711 253 ft 179 kts 271°
2026-05-07 01:32 36.69209 3.17123 1104 ft 189 kts 272°
2026-05-07 01:32 36.69239 3.15448 1771 ft 190 kts 271°
2026-05-07 01:32 36.69236 3.13738 2421 ft 205 kts 266°
2026-05-07 01:33 36.68885 3.12048 3475 ft 202 kts 241°
2026-05-07 01:33 36.68022 3.10853 4537 ft 183 kts 211°
2026-05-07 01:33 36.66776 3.10373 5452 ft 193 kts 182°
2026-05-07 01:33 36.65479 3.10767 6261 ft 200 kts 152°
2026-05-07 01:34 36.64528 3.12145 6666 ft 229 kts 111°
2026-05-07 01:34 36.64481 3.14196 7125 ft 257 kts 75°
2026-05-07 01:34 36.65107 3.16428 7800 ft 282 kts 67°
2026-05-07 01:34 36.65913 3.18688 8772 ft 293 kts 64°
2026-05-07 01:35 36.66793 3.21004 9864 ft 300 kts 64°
2026-05-07 01:35 36.67718 3.23444 10573 ft 321 kts 64°
2026-05-07 01:35 36.68678 3.26031 11082 ft 346 kts 65°
2026-05-07 01:35 36.69708 3.28875 11532 ft 370 kts 65°
2026-05-07 01:36 36.70828 3.31793 12507 ft 369 kts 61°
2026-05-07 01:36 36.72042 3.34444 13408 ft 343 kts 58°
2026-05-07 01:36 36.73279 3.36917 13402 ft 331 kts 56°
2026-05-07 01:36 36.74493 3.39326 13393 ft 329 kts 57°
2026-05-07 01:37 36.75634 3.41768 13400 ft 330 kts 60°
2026-05-07 01:37 36.76671 3.44325 13401 ft 329 kts 65°
2026-05-07 01:37 36.77525 3.46984 13260 ft 330 kts 72°
2026-05-07 01:37 36.78081 3.49745 12803 ft 329 kts 80°
2026-05-07 01:38 36.78400 3.52573 12340 ft 328 kts 86°
2026-05-07 01:38 36.78504 3.55415 11884 ft 327 kts 87°
2026-05-07 01:38 36.78869 3.58168 11445 ft 326 kts 79°
2026-05-07 01:38 36.78922 3.60918 10881 ft 312 kts 105°
2026-05-07 01:39 36.77942 3.63225 10339 ft 295 kts 137°
2026-05-07 01:39 36.76263 3.64457 9803 ft 279 kts 170°
2026-05-07 01:39 36.74402 3.64330 9195 ft 263 kts 204°
2026-05-07 01:39 36.73031 3.62952 8602 ft 253 kts 239°
2026-05-07 01:40 36.72607 3.61199 8059 ft 249 kts 270°
2026-05-07 01:40 36.72753 3.60036 7721 ft 247 kts 286°
2026-05-07 01:40 36.73352 3.58042 7114 ft 245 kts 291°
2026-05-07 01:41 36.73980 3.56079 6509 ft 243 kts 288°
2026-05-07 01:41 36.74268 3.54007 5756 ft 244 kts 268°
2026-05-07 01:41 36.73968 3.51873 4920 ft 258 kts 252°
2026-05-07 01:41 36.73249 3.49766 4090 ft 272 kts 242°
2026-05-07 01:42 36.72297 3.47723 3514 ft 274 kts 237°
2026-05-07 01:42 36.71250 3.45786 3040 ft 262 kts 234°
2026-05-07 01:42 36.70192 3.44030 2643 ft 246 kts 231°
2026-05-07 01:42 36.69189 3.42421 2492 ft 223 kts 239°
2026-05-07 01:43 36.68693 3.40724 2495 ft 203 kts 261°
2026-05-07 01:43 36.68664 3.39016 2538 ft 196 kts 272°
2026-05-07 01:43 36.68708 3.37345 2510 ft 192 kts 272°
2026-05-07 01:43 36.68750 3.35690 2363 ft 191 kts 272°
2026-05-07 01:44 36.68792 3.34055 2144 ft 186 kts 272°
2026-05-07 01:44 36.68830 3.32526 1914 ft 166 kts 272°
2026-05-07 01:44 36.68864 3.31165 1727 ft 150 kts 272°
2026-05-07 01:44 36.68895 3.29923 1508 ft 137 kts 272°
2026-05-07 01:45 36.68923 3.28768 1330 ft 131 kts 272°
2026-05-07 01:45 36.68951 3.27647 1155 ft 128 kts 272°
2026-05-07 01:45 36.68978 3.26547 980 ft 126 kts 271°
2026-05-07 01:45 36.69005 3.25463 812 ft 125 kts 271°
2026-05-07 01:46 36.69037 3.24397 635 ft 124 kts 273°
2026-05-07 01:46 36.69065 3.23327 462 ft 123 kts 270°
2026-05-07 01:46 36.69079 3.22262 367 ft 124 kts 272°
2026-05-07 01:46 36.69116 3.21188 195 ft 124 kts 271°
2026-05-07 01:47 36.69131 3.20136 82 ft 114 kts 272°
2026-05-07 01:47 36.69155 3.19285 75 ft 84 kts 272°
2026-05-07 01:47 36.69171 3.18544 79 ft 116 kts 271°
2026-05-07 01:47 36.69208 3.17145 219 ft 199 kts 272°
2026-05-07 01:48 36.69277 3.15296 1076 ft 219 kts 273°
2026-05-07 01:48 36.69361 3.13396 1834 ft 225 kts 273°
2026-05-07 01:48 36.69515 3.11434 2507 ft 216 kts 284°
2026-05-07 01:48 36.70140 3.09827 3194 ft 203 kts 312°
2026-05-07 01:49 36.71271 3.08838 3606 ft 202 kts 342°
2026-05-07 01:49 36.72628 3.08686 3578 ft 195 kts
2026-05-07 01:49 36.73928 3.09171 3280 ft 199 kts 26°
2026-05-07 01:49 36.74990 3.10248 3014 ft 195 kts 61°
2026-05-07 01:50 36.75233 3.11851 3110 ft 191 kts 89°
2026-05-07 01:50 36.75245 3.13483 2971 ft 189 kts 89°
2026-05-07 01:50 36.75265 3.15114 2768 ft 188 kts 89°
2026-05-07 01:50 36.75275 3.16739 2674 ft 187 kts 90°
2026-05-07 01:51 36.75228 3.18363 2698 ft 187 kts 93°
2026-05-07 01:51 36.75127 3.19956 2663 ft 187 kts 95°
2026-05-07 01:51 36.75002 3.21572 2722 ft 188 kts 96°
2026-05-07 01:51 36.74864 3.23190 2665 ft 188 kts 96°
2026-05-07 01:52 36.74591 3.24779 2512 ft 187 kts 108°
2026-05-07 01:52 36.74009 3.26249 2271 ft 188 kts 121°
2026-05-07 01:52 36.73323 3.27613 2012 ft 187 kts 122°
2026-05-07 01:52 36.72542 3.28867 1834 ft 183 kts 136°
2026-05-07 01:53 36.71384 3.29497 1647 ft 185 kts 177°
2026-05-07 01:53 36.70185 3.29021 1269 ft 183 kts 217°
2026-05-07 01:53 36.69513 3.27703 1260 ft 185 kts 248°
2026-05-07 01:53 36.69123 3.26207 1139 ft 183 kts 256°
2026-05-07 01:54 36.69030 3.24646 835 ft 180 kts 272°
2026-05-07 01:54 36.69107 3.23099 489 ft 179 kts 270°
2026-05-07 01:54 36.69100 3.21557 215 ft 178 kts 272°
2026-05-07 01:54 36.69129 3.20084 101 ft 152 kts 272°
2026-05-07 01:55 36.69158 3.19029 78 ft 89 kts 274°
2026-05-07 01:55 36.69176 3.18473 70 ft 41 kts 270°
2026-05-07 01:55 36.69179 3.18146 69 ft 37 kts 271°
2026-05-07 01:55 36.69184 3.17822 75 ft 37 kts 271°
2026-05-07 01:56 36.69191 3.17511 70 ft 35 kts 271°
2026-05-07 01:56 36.69200 3.17213 80 ft 29 kts 272°
2026-05-07 01:56 36.69228 3.17115 83 ft 6 kts 333°
2026-05-07 01:56 36.69266 3.17100 71 ft 0 kts 353°